This demonstration page uses our WeatherBlox Daily Observations layout. Learn more.

Left ArrowRight Arrow

Hourly Observations for November 28, 2015

Temp ( °F °C ) Dew Point ( °F °C ) Humidity (%) Winds ( mph kmh ) Pressure ( in mb ) Visibility ( mi km ) Precip ( " mm )
12:18 am 00:18 Cloudy with Rain 57 13.9 56 13.3 96 96 VRB 6 9 30.24 1024 3 5 0.03 0.76
12:53 am 00:53 Cloudy with Light Rain 57 13.9 56 13.3 96 96 SSW 3 6 30.24 1024 3 5 0.06 1.52
1:00 am 01:00 Cloudy with Light Rain 57 13.9 56 13.3 96 96 Calm 30.24 1024 3 5 0.01 0.25
1:53 am 01:53 Cloudy with Light Rain 57 13.9 56 13.3 96 96 SSW 5 7 30.22 1024 3 5 0.05 1.27
2:27 am 02:27 Cloudy with Light Rain 57 13.9 56 13.3 96 96 S 3 6 30.24 1024 3 5 0.01 0.25
2:53 am 02:53 Cloudy with Light Rain 57 13.9 56 13.3 96 96 Calm 30.22 1023 3 4 0.02 0.51
2:55 am 02:55 Cloudy with Light Rain 57 13.9 56 13.3 96 96 Calm 30.21 1023 3 5 0.00 0.03
3:05 am 03:05 Cloudy with Light Rain 57 13.9 56 13.3 96 96 Calm 30.21 1023 4 6 0.00 0.03
3:30 am 03:30 Cloudy with Light Rain 57 13.9 56 13.3 96 96 Calm 30.21 1023 3 4 0.01 0.25
3:53 am 03:53 Cloudy with Rain 57 13.9 56 13.3 96 96 W 3 6 30.21 1023 2 3 0.06 1.52
4:04 am 04:04 Cloudy with Heavy Rain 57 13.9 56 13.3 96 96 Calm 30.21 1023 2 3 0.04 1.02
4:11 am 04:11 Cloudy with Rain 57 13.9 56 13.3 96 96 Calm 30.21 1023 2 3 0.06 1.52
4:23 am 04:23 Cloudy with Heavy Rain 57 13.9 56 13.3 96 96 NW 3 6 30.21 1023 2 3 0.09 2.29
4:42 am 04:42 Cloudy with Rain 57 13.9 56 13.3 96 96 Calm 30.21 1023 2 3 0.14 3.56
4:53 am 04:53 Cloudy with Rain 57 13.9 56 13.3 96 96 Calm 30.21 1023 2 3 0.16 4.06
5:07 am 05:07 Cloudy with Rain 53 11.7 52 11.1 96 96 NNE 8 13 30.21 1023 3 4 0.02 0.51
5:26 am 05:26 Cloudy with Light Rain 50 10 49 9.4 96 96 NNE 9 15 30.21 1023 3 5 0.04 1.02
5:43 am 05:43 Cloudy with Light Rain 48 8.9 47 8.3 96 96 N 10 17 30.21 1023 3 4 0.06 1.52
5:51 am 05:51 Cloudy with Light Rain 46 8 46 8 100 100 N 8 13 30.24 1024 3 5 0.06 1.52
5:53 am 05:53 Cloudy with Light Rain 47 8.3 46 7.8 97 97 N 7 11 30.24 1024 3 5 0.06 1.52
6:04 am 06:04 Cloudy with Light Rain 46 7.8 45 7.2 96 96 N 9 15 30.24 1024 3 5 0.00 0.03
6:45 am 06:45 Cloudy with Light Rain 45 7.2 44 6.7 97 97 N 7 11 30.24 1024 5 8 0.01 0.25
6:53 am 06:53 Cloudy with Light Rain 45 7.2 44 6.7 97 97 N 8 13 30.25 1024 7 11 0.01 0.25
7:53 am 07:53 Cloudy with Light Rain 44 6.7 43 6.1 96 96 NNE 6 9 30.25 1024 10 16 0.01 0.25
8:19 am 08:19 Cloudy with Light Rain 44 6.7 43 6.1 96 96 NNE 5 7 30.24 1024 2 3 0.01 0.25
8:30 am 08:30 Cloudy with Light Rain 44 6.7 43 6.1 96 96 NNE 8 13 30.24 1024 2 2 0.02 0.51
8:53 am 08:53 Cloudy with Light Rain 44 6.7 43 6.1 96 96 N 6 9 30.26 1025 1 2 0.04 1.02
9:19 am 09:19 Cloudy with Light Rain 44 6.7 43 6.1 96 96 N 6 9 30.27 1025 2 3 0.03 0.76
9:27 am 09:27 Cloudy with Light Rain 44 6.7 43 6.1 96 96 NNE 8 13 30.27 1025 2 3 0.03 0.76
9:36 am 09:36 Cloudy with Light Rain 44 6.7 43 6.1 96 96 NNE 9 15 30.27 1025 3 4 0.03 0.76
9:53 am 09:53 Cloudy with Light Rain 44 6.7 43 6.1 96 96 NNE 8 13 30.27 1025 2 3 0.04 1.02
10:07 am 10:07 Cloudy with Light Rain 44 6.7 43 6.1 96 96 NNE 7 11 30.27 1025 2 3 0.01 0.25
10:46 am 10:46 Cloudy with Light Rain 44 6.7 43 6.1 96 96 NNE 7 11 30.27 1025 2 3 0.03 0.76
10:53 am 10:53 Cloudy with Light Rain 44 6.7 43 6.1 96 96 NNE 6 9 30.28 1025 3 4 0.03 0.76
11:00 am 11:00 Cloudy with Light Rain 44 6.7 43 6.1 96 96 NE 9 15 30.27 1025 3 5 0.00 0.03
11:24 am 11:24 Cloudy with Light Rain 44 6.7 43 6.1 96 96 NNE 8 13 30.27 1025 3 4 0.01 0.25
11:38 am 11:38 Cloudy with Light Rain 44 6.7 43 6.1 96 96 NNE 7 11 30.27 1025 4 6 0.02 0.51
11:53 am 11:53 Cloudy with Light Rain 44 6.7 43 6.1 96 96 NNE 8 13 30.26 1025 5 8 0.03 0.76
12:53 pm 12:53 Cloudy with Light Rain 45 7.2 43 6.1 93 93 NNE 6 9 30.25 1024 7 11 0.02 0.51
1:53 pm 13:53 Cloudy with Light Rain 45 7.2 43 6.1 93 93 NNE 6 9 30.23 1024 3 4 0.00 0.03
2:27 pm 14:27 Cloudy with Light Rain 45 7.2 43 6.1 93 93 NNE 6 9 30.21 1023 2 3 0.00 0.03
2:42 pm 14:42 Cloudy with Light Rain 45 7.2 43 6.1 93 93 NNE 6 9 30.21 1023 2 2 0.01 0.25
2:53 pm 14:53 Cloudy with Light Rain 45 7.2 44 6.7 97 97 NNE 3 6 30.22 1023 2 3 0.01 0.25
3:02 pm 15:02 Cloudy with Light Rain 44 6.7 43 6.1 96 96 NNE 8 13 30.21 1023 2 3 0.00 0.03
3:18 pm 15:18 Cloudy with Light Rain 45 7.2 43 6.1 93 93 NNE 7 11 30.21 1023 2 3 0.00 0.03
3:34 pm 15:34 Cloudy with Mist and Fog 44 6.7 43 6.1 96 96 NNE 7 11 30.21 1023 4 6 0.01 0.25
3:53 pm 15:53 Cloudy with Mist and Fog 44 6.7 43 6.1 96 96 NNE 8 13 30.22 1023 6 10 0.01 0.25
4:43 pm 16:43 Cloudy with Rain 44 6.7 42 5.6 93 93 N 9 15 30.24 1024 2 3 0.02 0.51
4:51 pm 16:51 Cloudy with Rain 45 7 43 6 93 93 NNE 7 11 30.24 1024 2 3 0.04 1.02
4:53 pm 16:53 Cloudy with Rain 44 6.7 42 5.6 93 93 N 6 9 30.25 1024 2 3 0.04 1.02
5:01 pm 17:01 Cloudy with Rain 44 6.7 42 5.6 93 93 N 7 11 30.24 1024 3 4 0.02 0.51
5:05 pm 17:05 Cloudy with Light Rain 43 6.1 42 5.6 97 97 N 6 9 30.24 1024 3 5 0.02 0.51
5:15 pm 17:15 Cloudy with Rain 43 6.1 42 5.6 97 97 NNE 8 13 30.24 1024 5 8 0.03 0.76
5:34 pm 17:34 Cloudy with Rain 43 6.1 42 5.6 97 97 NNE 7 11 30.24 1024 5 8 0.07 1.78
5:53 pm 17:53 Cloudy with Rain 43 6.1 41 5 93 93 NNE 9 15 30.25 1024 7 11 0.09 2.29
6:30 pm 18:30 Cloudy with Light Rain 43 6.1 41 5 93 93 NNE 12 19 30.24 1024 10 16 0.01 0.25
6:53 pm 18:53 Cloudy 43 6.1 41 5 93 93 NE 8 13 30.26 1025 10 16 0.01 0.25
7:26 pm 19:26 Cloudy with Light Rain 43 6.1 41 5 93 93 NNE 5 7 30.27 1025 3 5 0.01 0.25
7:38 pm 19:38 Cloudy with Rain 42 5.6 41 5 96 96 NNE 6 9 30.27 1025 3 4 0.02 0.51
7:53 pm 19:53 Cloudy with Light Rain 42 5.6 41 5 96 96 NNE 6 9 30.27 1025 3 4 0.04 1.02
8:00 pm 20:00 Cloudy with Light Rain 42 5.6 41 5 96 96 NE 6 9 30.27 1025 3 5 0.00 0.03
8:53 pm 20:53 Cloudy with Rain 42 5.6 41 5 96 96 NNE 7 11 30.27 1025 5 8 0.05 1.27
9:53 pm 21:53 Cloudy with Light Rain 42 5.6 40 4.4 92 92 NNE 6 9 30.27 1025 9 14 0.01 0.25
10:53 pm 22:53 Cloudy 42 5.6 40 4.4 92 92 NNE 8 13 30.26 1025 10 16 0.00 0.03
11:31 pm 23:31 Cloudy 42 5.6 40 4.4 92 92 NNE 6 9 30.27 1025 9 14 0.01 0.25
11:38 pm 23:38 Cloudy 41 5 39 3.9 93 93 NNE 7 11 30.24 1024 9 14 0.01 0.25
11:53 pm 23:53 Cloudy 41 5 39 3.9 93 93 NNE 7 11 30.27 1025 10 16 0.01 0.25

Powered by AerisWeather